Time,TemperatureF,DewpointF,PressureIn,WindDirection,WindDirectionDegrees,WindSpeedMPH,WindSpeedGustMPH,Humidity,HourlyPrecipIn,Conditions,Clouds,dailyrainin,SoftwareType,DateUTC
2013-06-02 00:02:00,66.3,57.0,30.07,SE,124,0.0,4.0,73,0.00,,,0.00,weatherlink.com 1.10,2013-06-02 04:02:00,
2013-06-02 00:17:00,66.2,57.0,30.06,SE,124,3.0,9.0,73,0.00,,,0.00,weatherlink.com 1.10,2013-06-02 04:17:00,
2013-06-02 00:32:00,66.1,57.0,30.06,SSE,157,0.0,4.0,73,0.00,,,0.00,weatherlink.com 1.10,2013-06-02 04:32:00,
2013-06-02 00:47:00,65.8,57.0,30.05,SE,146,1.0,4.0,74,0.00,,,0.00,weatherlink.com 1.10,2013-06-02 04:47:00,
2013-06-02 01:02:00,65.2,57.0,30.05,SE,142,0.0,6.0,75,0.00,,,0.00,weatherlink.com 1.10,2013-06-02 05:02:00,
2013-06-02 01:18:00,64.8,57.0,30.05,ESE,103,3.0,8.0,76,0.00,,,0.00,weatherlink.com 1.10,2013-06-02 05:18:00,
2013-06-02 01:33:00,65.0,57.0,30.05,East,101,0.0,6.0,76,0.00,,,0.00,weatherlink.com 1.10,2013-06-02 05:33:00,
2013-06-02 01:48:00,64.9,57.0,30.05,SE,130,0.0,3.0,76,0.00,,,0.00,weatherlink.com 1.10,2013-06-02 05:48:00,
2013-06-02 02:03:00,64.3,57.0,30.04,SSE,161,0.0,1.0,77,0.00,,,0.00,weatherlink.com 1.10,2013-06-02 06:03:00,
2013-06-02 02:18:00,63.6,57.0,30.04,ESE,120,0.0,0.0,79,0.00,,,0.00,weatherlink.com 1.10,2013-06-02 06:18:00,
2013-06-02 02:33:00,63.0,57.0,30.04,SSW,209,0.0,1.0,80,0.00,,,0.00,weatherlink.com 1.10,2013-06-02 06:33:00,
2013-06-02 02:48:00,62.2,57.0,30.04,SE,136,0.0,1.0,82,0.00,,,0.00,weatherlink.com 1.10,2013-06-02 06:48:00,
2013-06-02 03:03:00,61.7,57.0,30.04,SE,140,0.0,0.0,84,0.00,,,0.00,weatherlink.com 1.10,2013-06-02 07:03:00,
2013-06-02 03:18:00,62.9,57.0,30.03,ENE,77,2.0,6.0,81,0.00,,,0.00,weatherlink.com 1.10,2013-06-02 07:18:00,
2013-06-02 03:33:00,64.7,57.0,30.03,SE,142,0.0,3.0,77,0.00,,,0.00,weatherlink.com 1.10,2013-06-02 07:33:00,
2013-06-02 03:48:00,65.5,58.0,30.03,SE,130,0.0,3.0,76,0.00,,,0.00,weatherlink.com 1.10,2013-06-02 07:48:00,
2013-06-02 04:03:00,65.4,57.0,30.03,East,81,1.0,4.0,75,0.00,,,0.00,weatherlink.com 1.10,2013-06-02 08:03:00,
2013-06-02 04:18:00,65.6,58.0,30.03,ESE,112,0.0,4.0,75,0.00,,,0.00,weatherlink.com 1.10,2013-06-02 08:18:00,
2013-06-02 04:33:00,65.9,57.0,30.03,East,92,3.0,8.0,74,0.00,,,0.00,weatherlink.com 1.10,2013-06-02 08:33:00,
2013-06-02 04:48:00,66.0,58.0,30.03,SSW,204,0.0,3.0,74,0.00,,,0.00,weatherlink.com 1.10,2013-06-02 08:48:00,
2013-06-02 05:03:00,65.8,57.0,30.03,South,171,0.0,3.0,74,0.00,,,0.00,weatherlink.com 1.10,2013-06-02 09:03:00,
2013-06-02 05:18:00,65.5,58.0,30.03,East,101,1.0,5.0,76,0.00,,,0.00,weatherlink.com 1.10,2013-06-02 09:18:00,
2013-06-02 05:33:00,65.3,58.0,30.03,East,101,0.0,3.0,76,0.00,,,0.00,weatherlink.com 1.10,2013-06-02 09:33:00,
2013-06-02 05:48:00,64.8,57.0,30.03,ESE,116,0.0,8.0,77,0.00,,,0.00,weatherlink.com 1.10,2013-06-02 09:48:00,
2013-06-02 06:03:00,65.2,58.0,30.03,East,90,3.0,10.0,77,0.00,,,0.00,weatherlink.com 1.10,2013-06-02 10:03:00,
2013-06-02 06:18:00,65.6,58.0,30.03,East,94,1.0,7.0,77,0.00,,,0.00,weatherlink.com 1.10,2013-06-02 10:18:00,
2013-06-02 06:33:00,65.7,58.0,30.03,NE,54,0.0,8.0,77,0.00,,,0.00,weatherlink.com 1.10,2013-06-02 10:33:00,
2013-06-02 06:48:00,65.6,59.0,30.03,East,83,0.0,7.0,78,0.00,,,0.00,weatherlink.com 1.10,2013-06-02 10:48:00,
2013-06-02 07:03:00,65.8,59.0,30.03,East,100,0.0,5.0,78,0.00,,,0.00,weatherlink.com 1.10,2013-06-02 11:03:00,
2013-06-02 07:18:00,66.0,59.0,30.03,ESE,107,4.0,9.0,78,0.00,,,0.00,weatherlink.com 1.10,2013-06-02 11:18:00,
2013-06-02 07:33:00,66.3,59.0,30.04,ESE,113,4.0,10.0,78,0.00,,,0.00,weatherlink.com 1.10,2013-06-02 11:33:00,
2013-06-02 07:48:00,66.9,60.0,30.04,ESE,116,5.0,13.0,78,0.00,,,0.00,weatherlink.com 1.10,2013-06-02 11:48:00,
2013-06-02 08:03:00,67.1,60.0,30.04,East,90,1.0,6.0,78,0.00,,,0.00,weatherlink.com 1.10,2013-06-02 12:03:00,
2013-06-02 08:18:00,67.8,60.0,30.04,NE,50,1.0,10.0,77,0.00,,,0.00,weatherlink.com 1.10,2013-06-02 12:18:00,
2013-06-02 08:33:00,67.6,61.0,30.04,East,101,6.0,16.0,78,0.00,,,0.00,weatherlink.com 1.10,2013-06-02 12:33:00,
2013-06-02 08:48:00,67.8,61.0,30.04,ENE,76,0.0,12.0,78,0.00,,,0.00,weatherlink.com 1.10,2013-06-02 12:48:00,
2013-06-02 09:03:00,67.9,60.0,30.04,WNW,292,2.0,10.0,77,0.00,,,0.00,weatherlink.com 1.10,2013-06-02 13:03:00,
2013-06-02 09:18:00,68.4,61.0,30.04,East,96,7.0,7.0,78,0.00,,,0.00,weatherlink.com 1.10,2013-06-02 13:18:00,
2013-06-02 09:33:00,68.3,61.0,30.04,ESE,103,1.0,7.0,78,0.00,,,0.00,weatherlink.com 1.10,2013-06-02 13:33:00,
2013-06-02 09:48:00,68.6,62.0,30.05,NE,50,0.0,8.0,79,0.00,,,0.00,weatherlink.com 1.10,2013-06-02 13:48:00,
2013-06-02 10:03:00,68.3,62.0,30.05,SW,236,0.0,8.0,80,0.00,,,0.00,weatherlink.com 1.10,2013-06-02 14:03:00,
2013-06-02 10:18:00,68.0,62.0,30.05,SE,134,1.0,10.0,80,0.00,,,0.00,weatherlink.com 1.10,2013-06-02 14:18:00,
2013-06-02 10:33:00,67.7,62.0,30.06,East,101,6.0,11.0,81,0.00,,,0.00,weatherlink.com 1.10,2013-06-02 14:33:00,
2013-06-02 10:48:00,66.5,62.0,30.06,East,87,1.0,15.0,84,0.00,,,0.00,weatherlink.com 1.10,2013-06-02 14:48:00,
2013-06-02 11:03:00,66.0,62.0,30.06,ENE,67,8.0,10.0,86,0.00,,,0.00,weatherlink.com 1.10,2013-06-02 15:03:00,
2013-06-02 11:18:00,65.1,62.0,30.07,East,88,0.0,10.0,88,0.02,,,0.02,weatherlink.com 1.10,2013-06-02 15:18:00,
2013-06-02 11:33:00,64.5,62.0,30.06,NNW,327,0.0,5.0,91,0.06,,,0.06,weatherlink.com 1.10,2013-06-02 15:33:00,
2013-06-02 11:48:00,64.2,62.0,30.07,East,79,6.0,11.0,92,0.08,,,0.08,weatherlink.com 1.10,2013-06-02 15:48:00,
2013-06-02 12:03:00,64.0,61.0,30.08,SE,139,6.0,15.0,91,0.08,,,0.08,weatherlink.com 1.10,2013-06-02 16:03:00,
2013-06-02 12:18:00,63.8,61.0,30.07,SE,128,5.0,11.0,91,0.07,,,0.09,weatherlink.com 1.10,2013-06-02 16:18:00,
2013-06-02 12:33:00,64.2,62.0,30.06,ESE,116,0.0,9.0,92,0.03,,,0.09,weatherlink.com 1.10,2013-06-02 16:33:00,
2013-06-02 12:48:00,64.7,62.0,30.06,East,79,2.0,8.0,89,0.01,,,0.09,weatherlink.com 1.10,2013-06-02 16:48:00,
2013-06-02 13:03:00,64.8,62.0,30.06,ESE,108,7.0,10.0,89,0.01,,,0.09,weatherlink.com 1.10,2013-06-02 17:03:00,
2013-06-02 13:18:00,65.1,61.0,30.06,East,99,0.0,9.0,87,0.00,,,0.09,weatherlink.com 1.10,2013-06-02 17:18:00,
2013-06-02 13:33:00,65.3,61.0,30.05,East,86,6.0,7.0,87,0.00,,,0.09,weatherlink.com 1.10,2013-06-02 17:33:00,
2013-06-02 13:48:00,65.6,62.0,30.06,East,82,2.0,9.0,87,0.00,,,0.09,weatherlink.com 1.10,2013-06-02 17:48:00,
2013-06-02 14:03:00,66.8,63.0,30.05,ESE,117,4.0,9.0,86,0.00,,,0.09,weatherlink.com 1.10,2013-06-02 18:03:00,
2013-06-02 14:18:00,67.9,63.0,30.04,SE,130,0.0,15.0,83,0.00,,,0.09,weatherlink.com 1.10,2013-06-02 18:18:00,
2013-06-02 14:33:00,68.5,61.0,30.03,NNW,329,4.0,9.0,78,0.00,,,0.09,weatherlink.com 1.10,2013-06-02 18:33:00,
2013-06-02 14:48:00,68.2,61.0,30.04,NE,49,4.0,13.0,77,0.00,,,0.09,weatherlink.com 1.10,2013-06-02 18:48:00,
2013-06-02 15:03:00,67.1,60.0,30.04,North,5,1.0,9.0,78,0.00,,,0.09,weatherlink.com 1.10,2013-06-02 19:03:00,
2013-06-02 15:18:00,66.3,60.0,30.03,North,355,0.0,12.0,80,0.00,,,0.09,weatherlink.com 1.10,2013-06-02 19:18:00,
2013-06-02 15:33:00,66.0,60.0,30.02,ESE,106,5.0,8.0,80,0.00,,,0.09,weatherlink.com 1.10,2013-06-02 19:33:00,
2013-06-02 15:48:00,65.5,60.0,30.02,ENE,72,0.0,5.0,81,0.00,,,0.09,weatherlink.com 1.10,2013-06-02 19:48:00,
2013-06-02 16:03:00,65.5,60.0,30.02,ESE,117,3.0,5.0,82,0.00,,,0.09,weatherlink.com 1.10,2013-06-02 20:03:00,
2013-06-02 16:18:00,65.3,60.0,30.02,ENE,73,0.0,5.0,84,0.00,,,0.09,weatherlink.com 1.10,2013-06-02 20:18:00,
2013-06-02 16:34:00,65.6,60.0,30.01,NE,45,2.0,5.0,83,0.00,,,0.09,weatherlink.com 1.10,2013-06-02 20:34:00,
2013-06-02 16:49:00,65.3,60.0,30.02,East,81,3.0,7.0,84,0.00,,,0.09,weatherlink.com 1.10,2013-06-02 20:49:00,
2013-06-02 17:04:00,65.1,61.0,30.02,East,80,2.0,7.0,85,0.00,,,0.09,weatherlink.com 1.10,2013-06-02 21:04:00,
2013-06-02 17:19:00,64.7,60.0,30.01,SSE,158,4.0,9.0,85,0.00,,,0.09,weatherlink.com 1.10,2013-06-02 21:19:00,
2013-06-02 17:34:00,65.1,60.0,30.01,East,99,6.0,15.0,84,0.00,,,0.09,weatherlink.com 1.10,2013-06-02 21:34:00,
2013-06-02 17:49:00,65.1,61.0,30.00,East,80,0.0,5.0,85,0.00,,,0.09,weatherlink.com 1.10,2013-06-02 21:49:00,
2013-06-02 18:04:00,64.9,60.0,30.00,ESE,109,4.0,6.0,85,0.00,,,0.09,weatherlink.com 1.10,2013-06-02 22:04:00,
2013-06-02 18:19:00,64.7,61.0,30.01,East,79,6.0,8.0,86,0.00,,,0.09,weatherlink.com 1.10,2013-06-02 22:19:00,
2013-06-02 18:34:00,64.5,61.0,30.01,East,92,0.0,3.0,87,0.00,,,0.09,weatherlink.com 1.10,2013-06-02 22:34:00,
2013-06-02 18:49:00,64.5,61.0,30.01,East,100,0.0,3.0,87,0.00,,,0.09,weatherlink.com 1.10,2013-06-02 22:49:00,
2013-06-02 19:04:00,64.2,61.0,30.01,ESE,115,0.0,6.0,88,0.00,,,0.09,weatherlink.com 1.10,2013-06-02 23:04:00,
2013-06-02 19:19:00,64.0,61.0,30.01,SE,125,0.0,6.0,89,0.00,,,0.09,weatherlink.com 1.10,2013-06-02 23:19:00,
2013-06-02 19:34:00,63.6,61.0,30.01,SE,125,5.0,7.0,90,0.00,,,0.09,weatherlink.com 1.10,2013-06-02 23:34:00,
2013-06-02 19:49:00,63.4,61.0,30.02,ESE,112,2.0,5.0,91,0.00,,,0.09,weatherlink.com 1.10,2013-06-02 23:49:00,
2013-06-02 20:04:00,63.3,61.0,30.02,ESE,111,1.0,5.0,91,0.00,,,0.09,weatherlink.com 1.10,2013-06-03 00:04:00,
2013-06-02 20:19:00,63.1,61.0,30.02,SSW,193,0.0,5.0,92,0.01,,,0.10,weatherlink.com 1.10,2013-06-03 00:19:00,
2013-06-02 20:34:00,62.8,61.0,30.03,East,100,1.0,5.0,92,0.03,,,0.12,weatherlink.com 1.10,2013-06-03 00:34:00,
2013-06-02 20:49:00,62.6,61.0,30.04,ENE,69,0.0,1.0,93,0.08,,,0.17,weatherlink.com 1.10,2013-06-03 00:49:00,
2013-06-02 21:04:00,62.4,61.0,30.04,East,83,0.0,2.0,94,0.15,,,0.24,weatherlink.com 1.10,2013-06-03 01:04:00,
2013-06-02 21:19:00,62.3,61.0,30.04,East,83,0.0,1.0,94,0.24,,,0.34,weatherlink.com 1.10,2013-06-03 01:19:00,
2013-06-02 21:34:00,62.0,61.0,30.03,ESE,121,0.0,2.0,95,0.26,,,0.39,weatherlink.com 1.10,2013-06-03 01:34:00,
2013-06-02 21:49:00,62.0,61.0,30.03,SSW,196,0.0,8.0,95,0.23,,,0.40,weatherlink.com 1.10,2013-06-03 01:49:00,
2013-06-02 22:04:00,62.0,61.0,30.04,East,80,0.0,2.0,95,0.16,,,0.40,weatherlink.com 1.10,2013-06-03 02:04:00,
2013-06-02 22:19:00,61.9,61.0,30.05,West,276,0.0,1.0,95,0.06,,,0.41,weatherlink.com 1.10,2013-06-03 02:19:00,
2013-06-02 22:34:00,61.7,60.0,30.05,NE,40,0.0,2.0,95,0.05,,,0.44,weatherlink.com 1.10,2013-06-03 02:34:00,
2013-06-02 22:49:00,61.6,60.0,30.05,SE,126,4.0,4.0,95,0.07,,,0.47,weatherlink.com 1.10,2013-06-03 02:49:00,
2013-06-02 23:04:00,61.4,60.0,30.05,ESE,103,1.0,2.0,95,0.08,,,0.48,weatherlink.com 1.10,2013-06-03 03:04:00,
2013-06-02 23:19:00,61.3,60.0,30.05,ESE,118,0.0,5.0,95,0.07,,,0.48,weatherlink.com 1.10,2013-06-03 03:19:00,
2013-06-02 23:34:00,61.3,60.0,30.04,ESE,108,0.0,3.0,95,0.04,,,0.48,weatherlink.com 1.10,2013-06-03 03:34:00,
2013-06-02 23:49:00,61.3,60.0,30.04,ESE,123,1.0,6.0,95,0.00,,,0.48,weatherlink.com 1.10,2013-06-03 03:49:00,